Regional Weather Roundup
Issued by NWS Bismarck, ND

Home | Current Version | Previous Version | Text Only | Print | Product List | Glossary On
Versions: 1 2 3 4 5 6 7 8 9 10 11 12 13 14 15 16 17 18 19 20 21 22 23 24 25 26 27 28 29 30 31 32 33 34 35 36 37 38 39 40 41 42 43 44 45 46 47 48 49 50
766
ASUS43 KBIS 150302
RWRBIS

NWR BROADCAST TEXT
NATIONAL WEATHER SERVICE BISMARCK ND
900 PM CST THU DEC 14 2017

NOTE: "FAIR" INDICATES FEW OR NO CLOUDS BELOW 12,000 FEET WITH NO
SIGNIFICANT WEATHER AND/OR OBSTRUCTIONS TO VISIBILITY.


CITY           SKY/WX    TMP DP  RH WIND       PRES   REMARKS
WILLISTON      FAIR      25  21  85 W6        30.05F WCI  18
MINOT          CLOUDY    32  23  69 NW14      30.00F
MINOT AFB      CLOUDY    31  22  69 NW15      29.99F
BISMARCK       CLOUDY    34  25  69 W7        30.05F
DICKINSON      FAIR      22  18  85 W9        30.03F WCI  12
GARRISON         N/A     33  24  69 NW14      30.01F
HETTINGER ARPT CLOUDY    20  17  88 W3        30.09F
JAMESTOWN      CLOUDY    32  28  85 NW17G23   29.98F
CARRINGTON     MOCLDY    32  28  86 NW16G22   30.00F
HAZEN          CLOUDY    34  27  75 W9        30.05F
LINTON           N/A     34  23  64 W9G15     30.06F
MANDAN         CLOUDY    34  25  69 W13       30.04F
OAKES            N/A     28  28 100 SW7       30.02F
RUGBY          CLOUDY    30  28  93 NW12      29.99S
STANLEY        CLOUDY    30  27  86 NW7G14    30.03F
TIOGA          CLOUDY    28  28 100 NW10      30.03F WCI  19
WATFORD CITY   FAIR      27  23  86 W5        30.04F
$$

CITY           SKY/WX    TMP DP  RH WIND       PRES   REMARKS
GRAND FORKS    CLOUDY    20  17  88 CALM      30.03F
GRAND FORKS AF CLOUDY    19  18  93 CALM      30.03R
DEVILS LAKE    FLURRIES  29  26  89 N14       29.98S WCI  18
FARGO          CLOUDY    24  21  88 E5        30.01F WCI  18
CANDO          CLOUDY    27  27 100 NE10      30.00S WCI  17
CAVALIER       FLURRIES  19  18  93 N8G14     30.03S WCI   9
GRAFTON        CLOUDY    21  19  93 N10       30.05S WCI  10
GWINNER          N/A     28  27  93 W10       30.01F FOG     WCI  19
LANGDON        CLOUDY    21  21 100 N10       29.98F WCI  10
ROLLA          CLOUDY    23  23 100 NE6       29.98S WCI  16
WALHALLA       FAIR      19  19 100 N13       30.03S WCI   7
$$

CITY           SKY/WX    TMP DP  RH WIND       PRES   REMARKS
ABERDEEN       CLOUDY    30  26  85 W7        30.06F
MOBRIDGE       CLOUDY    34  25  69 W9        30.06F
BUFFALO          N/A     20  16  84 W9        30.03F WCI   9
RAPID CITY     CLEAR     24  15  68 CALM      30.14F
GLASGOW        CLOUDY    26  21  81 SW3       30.04F
SIDNEY         CLOUDY    28  23  81 NW9       30.05F WCI  19
WOLF POINT     CLOUDY    20  15  81 SW5       30.07F WCI  13
GLENDIVE       CLOUDY    23  19  85 W6        30.07F WCI  16
MILES CITY     CLOUDY    27  21  78 SW7       30.09F WCI  19
BAKER          CLOUDY    23  19  85 W9        30.08F WCI  13
$$

CITY           SKY/WX    TMP DP  RH WIND       PRES   REMARKS
BILLINGS       CLOUDY    39  19  44 SW15      30.10F
GREAT FALLS    CLOUDY    35  19  52 SW18      30.08F
$$





USA.gov is the U.S. government's official web portal to all federal, state and local government web resources and services.